TimePDT,TemperatureF,Dew PointF,Humidity,Sea Level PressureIn,VisibilityMPH,Wind Direction,Wind SpeedMPH,Gust SpeedMPH,PrecipitationIn,Events,Conditions,WindDirDegrees,DateUTC
12:52 AM,52.0,39.9,63,29.82,10.0,South,9.2,-,N/A,,Mostly Cloudy,180,2013-04-06 07:52:00
1:52 AM,51.1,42.1,71,29.81,10.0,South,11.5,-,N/A,,Mostly Cloudy,180,2013-04-06 08:52:00
2:52 AM,51.1,43.0,74,29.78,10.0,South,13.8,-,0.00,,Overcast,170,2013-04-06 09:52:00
3:52 AM,50.0,43.0,77,29.77,10.0,SSE,13.8,-,N/A,,Mostly Cloudy,160,2013-04-06 10:52:00
4:52 AM,48.0,42.1,80,29.77,10.0,South,4.6,-,N/A,,Clear,180,2013-04-06 11:52:00
5:52 AM,48.9,42.1,77,29.78,10.0,South,4.6,-,N/A,,Clear,170,2013-04-06 12:52:00
6:52 AM,51.1,39.9,66,29.80,10.0,SSW,9.2,-,N/A,,Scattered Clouds,210,2013-04-06 13:52:00
7:52 AM,50.0,39.0,66,29.81,10.0,SW,10.4,-,N/A,,Clear,230,2013-04-06 14:52:00
8:52 AM,54.0,37.9,55,29.81,10.0,SW,12.7,-,N/A,,Clear,220,2013-04-06 15:52:00
9:52 AM,57.0,37.0,47,29.83,10.0,SW,16.1,-,N/A,,Clear,220,2013-04-06 16:52:00
10:52 AM,59.0,33.1,38,29.84,10.0,SW,15.0,23.0,N/A,,Partly Cloudy,220,2013-04-06 17:52:00
11:52 AM,62.1,30.9,31,29.85,10.0,SW,19.6,26.5,N/A,,Mostly Cloudy,230,2013-04-06 18:52:00
12:52 PM,62.1,30.0,30,29.85,10.0,SW,20.7,27.6,N/A,,Mostly Cloudy,220,2013-04-06 19:52:00
1:52 PM,64.0,28.9,27,29.85,10.0,SW,17.3,29.9,N/A,,Clear,220,2013-04-06 20:52:00
2:52 PM,64.0,26.1,24,29.84,10.0,SW,16.1,28.8,N/A,,Scattered Clouds,230,2013-04-06 21:52:00
3:52 PM,62.1,28.0,28,29.84,10.0,WSW,15.0,-,N/A,,Mostly Cloudy,240,2013-04-06 22:52:00
4:52 PM,61.0,30.0,31,29.84,10.0,SW,15.0,24.2,N/A,,Overcast,220,2013-04-06 23:52:00
5:52 PM,59.0,30.9,35,29.84,10.0,West,11.5,-,N/A,,Mostly Cloudy,270,2013-04-07 00:52:00
6:52 PM,55.9,30.9,39,29.84,10.0,West,10.4,-,N/A,,Partly Cloudy,280,2013-04-07 01:52:00
7:52 PM,54.0,30.0,40,29.85,10.0,West,8.1,-,N/A,,Clear,260,2013-04-07 02:52:00
8:52 PM,54.0,30.0,40,29.85,10.0,SW,4.6,-,N/A,,Mostly Cloudy,220,2013-04-07 03:52:00
9:52 PM,53.1,30.9,43,29.83,10.0,SW,4.6,-,N/A,,Overcast,230,2013-04-07 04:52:00
10:52 PM,51.1,34.0,52,29.82,10.0,South,8.1,-,N/A,,Overcast,190,2013-04-07 05:52:00
11:52 PM,51.1,34.0,52,29.81,10.0,South,5.8,-,N/A,,Overcast,190,2013-04-07 06:52:00